Temperature
11 11 10 10 11 11 11 10 10 10 10 10 10 10 10 10 10 10 10 10 9 9 9 9 9 9 9 9 9 9 9 9 9 9 9 9 9 10 10 10 10 10 10
10 10 10 10 10 10 10 10 10 10 10 10 9 9 9 9 9 9 9 9 9 9 9 9 9 9 9 9 9 9 9 9 9 9 9 9 9 9 9 9 9 9 9
10 10 10 10 10 10 9 9 9 9 9 9 9 9 9 9 9 9 9 9 9 9 8 8 8 8 8 8 8 8 8 8 8 8 8 8 8 9 9 9 9 9 9
10 10 9 9 9 9 9 9 9 9 9 9 8 8 8 8 8 8 8 8 8 8 8 8 8 8 8 8 8 8 8 8 8 8 8 8 8 8 8 8 8 8 8
9 9 9 9 9 9 8 8 8 8 8 8 8 8 8 8 8 8 8 8 8 8 8 8 8 8 7 7 7 7 7 7 7 7 7 7 7 7 8 8 8 8 8
9 9 9 8 8 8 8 8 8 8 7 7 7 7 7 7 7 7 7 7 7 7 7 7 7 7 7 7 7 7 7 7 7 7 7 7 7 7 7 7 7 7 7
8 8 8 8 8 8 8 7 7 7 7 7 7 6 6 6 7 7 7 7 7 7 7 7 7 7 7 7 7 7 7 7 7 6 6 6 6 6 7 7 7 7 7
7 8 8 8 7 7 7 7 7 7 6 6 6 6 5 6 6 6 6 6 7 6 6 6 6 6 6 6 7 6 6 6 6 6 6 6 6 6 6 6 6 6 6
7 7 7 7 7 7 7 6 6 6 6 6 6 6 5 5 5 5 6 6 6 6 6 6 6 6 6 6 6 6 6 6 6 6 6 6 6 6 6 6 6 6 6
6 6 6 6 6 6 6 6 6 6 6 6 5 5 6 5 5 5 5 5 5 6 6 5 5 5 5 5 5 6 6 5 5 5 5 5 5 5 5 5 5 5 5
6 6 6 6 6 6 6 5 5 5 5 5 5 5 5 5 5 5 5 5 5 5 5 5 5 5 5 5 5 5 5 5 5 5 5 5 5 5 5 5 5 5 5
5 5 5 5 5 5 5 5 5 5 5 5 5 5 5 5 5 5 5 5 5 5 5 5 5 4 4 4 4 4 4 5 4 4 4 4 4 4 4 4 4 4 4
5 5 5 5 5 5 5 5 5 4 4 4 4 4 4 4 4 4 4 4 4 4 4 4 4 4 4 4 4 4 4 4 4 4 4 4 4 4 4 3 4 4 3
4 4 4 4 4 4 4 4 4 4 4 4 4 4 4 4 4 4 4 3 3 3 3 4 4 4 4 3 3 3 3 4 4 4 3 3 3 3 3 3 3 3 3
3 3 3 3 4 4 3 3 3 3 3 4 4 3 3 3 3 3 3 3 3 2 2 3 3 3 3 3 3 3 3 3 3 3 3 3 3 3 2 2 2 2 2
3 3 3 3 3 3 3 3 3 3 3 3 3 3 3 3 3 3 3 3 2 2 2 2 3 3 2 2 2 2 2 2 2 2 2 2 2 2 2 2 2 2 2
2 2 2 2 2 2 2 2 2 2 2 2 2 2 2 2 2 2 2 2 2 2 2 2 2 2 2 2 2 2 2 2 2 2 2 2 2 2 1 1 1 1 1
2 2 2 2 2 2 2 1 2 2 2 2 2 2 2 2 2 2 2 2 2 1 1 1 1 1 1 1 1 1 1 1 1 1 1 1 1 1 1 1 1 0 0
1 1 1 1 1 1 1 1 1 1 1 1 1 1 1 1 1 1 1 1 1 1 1 0 1 1 1 0 0 0 1 0 0 0 0 0 0 0 0 0 0 -0 -0
0 1 1 1 0 0 0 0 0 0 1 1 1 1 1 1 1 1 1 1 0 0 0 -0 -0 0 -0 -0 -0 -0 -0 -0 -0 -0 -0 -0 -0 -0 -0 -0 -0 -1 -1
-0 -0 -0 0 -0 -0 -0 -0 -0 -0 -0 0 0 0 0 -0 -0 -0 0 -0 -0 -1 -1 -1 -1 -1 -1 -1 -1 -1 -1 -1 -1 -1 -1 -1 -1 -1 -1 -1 -1 -1 -1
-1 -1 -1 -1 -1 -1 -1 -1 -1 -1 -1 -1 -0 -0 -1 -1 -1 -1 -1 -1 -1 -1 -1 -1 -1 -1 -1 -1 -1 -1 -2 -2 -2 -2 -2 -2 -2 -2 -2 -2 -2 -2 -2
-2 -2 -2 -2 -2 -2 -2 -2 -2 -2 -1 -1 -1 -1 -1 -1 -1 -1 -1 -1 -1 -2 -2 -2 -2 -2 -2 -2 -2 -2 -2 -2 -2 -2 -2 -2 -2 -2 -2 -2 -2 -2 -3
-2 -2 -2 -2 -2 -2 -2 -2 -2 -2 -2 -2 -2 -2 -2 -2 -2 -2 -2 -2 -2 -2 -2 -2 -2 -2 -2 -2 -2 -3 -3 -3 -3 -3 -3 -3 -3 -3 -3 -3 -3 -3 -3
-3 -3 -3 -3 -3 -3 -3 -3 -3 -3 -3 -3 -2 -2 -2 -2 -2 -3 -3 -3 -3 -3 -3 -3 -3 -3 -2 -3 -3 -3 -4 -4 -4 -4 -4 -4 -4 -4 -3 -3 -3 -4 -4
-4 -4 -4 -4 -4 -3 -4 -4 -4 -4 -4 -3 -3 -3 -3 -3 -3 -3 -3 -3 -3 -3 -3 -3 -3 -3 -3 -3 -3 -4 -4 -4 -5 -5 -5 -5 -5 -5 -5 -4 -4 -4 -4
Wind_Speed
7 7 6 7 7 8 8 8 8 8 8 9 9 9 9 8 8 7 7 9 10 10 10 10 9 9 10 10 10 10 10 10 10 10 10 10 10 9 9 10 9 9 9
9 7 6 6 6 7 8 8 8 7 7 7 7 8 8 8 8 8 7 8 8 9 9 9 8 8 8 9 9 8 9 9 9 9 9 9 9 8 8 8 8 8 7
10 9 7 6 6 8 8 8 8 8 6 6 6 6 7 7 7 7 7 7 7 7 8 8 8 7 8 8 8 8 8 8 9 9 9 9 9 8 8 8 7 7 7
10 10 7 6 7 8 7 6 5 5 4 4 3 4 5 6 6 7 7 7 7 7 7 7 7 6 7 7 7 7 8 8 8 8 8 8 8 8 8 8 7 7 6
9 9 8 7 9 7 6 5 4 4 4 4 3 3 4 4 4 6 6 6 7 7 6 5 6 5 5 6 6 6 7 7 7 7 6 6 6 6 6 6 7 7 6
9 9 8 8 8 6 4 4 4 3 4 4 4 3 3 3 3 4 4 5 5 5 5 5 5 4 4 4 4 5 5 5 6 6 5 5 5 5 5 5 5 5 6
8 8 7 7 7 5 5 5 4 5 3 3 3 2 2 2 2 2 3 4 4 4 4 4 3 3 3 3 3 3 3 4 4 5 4 4 4 3 3 3 3 4 4
8 8 7 7 6 5 5 5 5 3 3 3 3 3 1 1 1 1 1 2 2 3 3 3 2 3 2 2 2 2 1 2 2 3 3 3 3 3 2 2 2 2 2
7 7 7 7 7 6 6 6 6 5 5 2 2 3 3 3 1 1 1 0 1 2 2 2 2 2 3 2 1 2 2 1 2 2 2 2 2 2 2 2 1 0 0
7 7 7 7 7 6 6 6 5 4 6 5 2 1 2 3 3 1 2 1 1 1 2 2 3 3 3 2 2 2 2 2 3 3 3 3 2 2 2 2 1 1 1
5 6 7 6 6 6 7 6 5 4 4 5 4 3 2 1 2 3 3 2 2 2 2 3 4 4 4 4 3 3 3 3 3 4 4 4 3 2 2 2 3 3 2
3 4 5 5 5 5 7 7 6 6 5 5 4 3 3 3 3 3 4 3 3 3 3 3 5 5 5 5 5 4 5 5 5 5 5 5 4 4 3 3 3 4 3
3 3 4 4 4 5 6 7 6 7 6 6 5 4 3 4 3 3 3 3 2 2 2 2 5 7 6 6 5 6 6 6 5 5 5 5 5 4 4 4 5 5 4
4 5 5 4 5 5 5 6 5 6 6 6 6 5 3 3 3 3 3 4 3 2 2 4 2 6 7 7 7 7 6 7 7 7 7 6 5 5 5 5 5 5 6
3 5 5 5 4 5 5 5 5 6 6 6 6 6 4 3 3 3 3 4 5 4 5 4 3 3 6 7 8 7 7 8 8 8 8 7 6 6 6 6 6 6 5
4 4 4 5 5 5 5 5 5 5 6 5 5 6 5 4 4 4 4 4 4 5 5 4 4 3 5 6 8 7 7 8 8 9 8 8 7 7 7 6 6 6 6
4 4 5 6 6 6 5 5 6 6 7 6 6 7 7 6 5 4 4 4 4 4 5 4 2 2 4 4 6 7 7 7 7 9 9 9 8 8 8 7 7 7 7
5 5 5 6 6 6 6 6 6 7 8 8 7 7 7 6 7 6 5 5 5 4 5 5 3 3 4 5 5 5 6 7 7 8 9 10 9 9 9 9 9 8 8
5 4 5 6 7 7 6 6 6 7 8 8 8 8 8 7 7 6 6 6 5 4 4 4 4 3 3 3 3 3 4 4 6 7 8 9 10 10 10 10 10 10 9
5 5 5 5 6 6 7 7 6 6 7 8 8 8 8 8 8 8 7 7 6 5 4 4 4 3 3 3 3 3 3 3 3 5 7 8 9 10 10 11 11 11 11
4 5 5 4 5 5 6 7 7 6 7 7 7 8 8 9 10 9 7 7 7 6 5 5 5 4 4 3 4 4 4 3 3 4 3 5 6 7 9 10 11 11 12
4 4 5 5 5 5 8 9 7 6 6 7 7 6 7 8 10 12 11 11 10 8 8 7 6 7 7 6 4 4 4 3 4 3 3 4 5 5 7 9 11 12 12
4 4 5 5 6 7 9 9 9 6 6 6 7 6 6 6 9 7 9 10 11 12 11 8 8 9 8 7 6 6 6 5 5 3 3 5 4 5 7 9 11 12 12
4 4 5 5 5 6 8 9 8 5 5 5 6 7 7 6 7 7 6 6 7 7 9 8 7 8 7 7 8 7 6 4 2 3 4 4 3 4 5 8 11 12 12
4 4 4 5 5 6 8 8 8 4 5 5 5 6 6 6 9 9 7 7 6 6 7 8 9 9 9 9 8 5 4 4 4 4 3 3 3 3 3 5 9 11 11
4 4 4 4 5 5 7 8 8 4 5 4 4 5 8 8 9 9 7 7 8 7 5 4 5 6 5 6 8 7 6 6 4 4 3 3 3 1 3 3 4 7 8
Wind_Direction
127 118 112 108 106 108 106 101 100 99 94 91 89 91 86 81 78 78 86 100 104 105 106 104 102 105 103 100 99 97 95 94 93 91 89 85 83 83 81 77 80 84 83
138 131 121 117 114 115 115 112 111 105 97 94 88 89 92 88 83 78 80 90 100 106 107 107 106 110 112 109 106 105 103 97 95 93 90 85 84 82 78 74 73 79 85
144 138 132 128 126 122 118 113 108 103 98 94 88 83 90 92 90 85 83 83 88 98 105 105 110 112 115 113 108 106 106 99 93 90 91 89 82 77 73 72 73 73 81
148 140 137 137 132 125 120 120 118 110 104 97 90 80 82 88 89 91 91 90 88 87 92 98 107 112 114 114 113 114 114 108 99 96 91 87 82 79 75 71 68 68 72
148 144 140 139 135 127 122 127 122 125 123 110 100 77 68 80 86 90 90 91 92 90 88 86 90 105 112 114 117 120 119 114 109 103 98 95 91 86 80 72 66 63 64
146 146 142 142 138 135 129 129 130 117 126 123 103 74 44 55 78 87 95 96 92 95 93 87 82 87 103 109 108 115 126 124 118 115 113 109 104 96 88 79 70 64 60
149 145 149 148 148 152 152 143 135 131 124 120 105 76 24 24 51 69 93 101 97 99 98 94 91 93 97 109 118 112 119 129 132 128 125 128 126 116 104 93 78 65 61
155 155 157 160 159 154 151 150 141 139 149 149 136 128 85 349 339 3 60 110 111 113 111 115 118 121 116 112 144 145 134 138 153 156 148 143 143 140 135 115 95 72 57
162 164 161 163 163 162 169 171 164 154 165 184 166 149 159 199 225 281 277 178 137 126 142 149 147 147 150 143 141 156 161 163 206 199 180 170 169 177 179 169 164 144 35
169 166 166 170 171 169 176 182 178 169 165 176 191 197 175 155 168 212 256 249 237 208 193 184 177 178 168 165 175 186 190 203 224 225 218 210 208 222 211 201 219 242 269
177 173 172 174 179 180 182 183 180 178 179 180 180 175 162 163 157 177 210 226 246 237 220 204 194 194 193 192 197 206 202 212 228 232 227 223 227 240 241 235 241 248 259
193 182 184 182 183 186 188 188 186 186 190 188 189 185 178 178 186 189 197 208 225 240 242 218 206 208 209 205 212 218 218 222 231 239 240 235 236 242 255 264 263 260 262
212 209 199 197 193 195 198 189 188 195 192 191 195 202 202 202 186 191 186 196 217 247 242 231 221 215 214 213 218 220 227 230 232 237 241 241 241 246 256 266 268 265 266
216 205 202 202 203 197 203 196 191 198 194 196 201 201 206 212 202 198 188 178 193 228 234 241 236 214 215 216 222 222 229 235 234 236 240 244 242 246 254 259 263 266 265
212 206 204 204 203 200 204 199 200 204 199 201 202 203 207 213 208 208 202 188 184 205 227 228 222 218 217 219 223 223 230 238 239 238 238 238 238 243 250 255 256 262 264
207 208 210 207 206 203 204 203 205 205 202 206 202 203 209 214 209 208 211 205 203 207 223 220 228 226 216 226 228 227 231 240 243 240 238 237 238 239 244 251 253 253 259
204 210 213 213 211 206 204 206 212 206 208 209 209 207 212 207 208 210 212 205 207 207 229 246 237 217 205 214 221 224 228 233 240 242 241 239 240 243 243 244 249 251 255
207 208 209 216 218 214 208 208 213 210 208 210 212 211 217 212 213 211 212 211 211 209 214 235 240 218 221 217 210 214 225 231 236 242 246 244 242 243 242 242 245 249 253
215 212 209 213 216 216 214 216 214 217 211 212 211 213 215 210 217 216 217 215 213 213 212 221 231 223 224 216 214 228 228 227 236 242 248 248 246 244 243 244 244 247 251
215 215 211 213 216 218 218 216 218 223 219 218 214 214 213 212 217 216 218 215 210 206 206 215 225 221 220 216 206 222 242 237 240 243 249 251 250 249 249 247 244 245 248
220 211 205 209 214 218 220 215 214 219 223 220 221 218 218 221 223 222 219 209 203 208 207 213 220 221 220 206 216 215 230 245 254 234 243 248 248 250 251 247 245 246 249
222 211 208 209 214 226 234 230 222 217 223 222 224 228 228 227 232 233 231 222 210 208 211 214 221 221 223 218 212 214 216 226 254 225 221 251 234 242 245 243 249 253 253
219 218 213 215 222 230 232 231 228 221 222 225 221 224 232 229 231 224 231 231 226 226 220 214 222 223 221 213 207 215 218 224 238 219 213 247 231 242 245 246 252 254 257
221 224 221 220 224 233 233 234 234 220 225 233 225 220 222 228 228 220 217 223 226 226 226 222 222 224 223 214 208 213 220 229 259 239 216 247 243 248 255 254 254 255 259
231 231 226 219 224 235 236 235 232 218 228 236 238 222 220 222 231 228 217 220 228 234 236 236 237 238 236 227 210 190 199 214 246 247 212 231 246 261 263 257 257 259 261
236 239 241 234 232 235 236 235 231 219 229 237 242 231 230 229 226 224 216 213 224 229 223 233 242 249 238 224 216 206 202 213 232 246 212 206 223 230 272 265 250 256 262
Height
1542 1544 1545 1547 1548 1549 1550 1551 1553 1554 1555 1556 1557 1558 1559 1560 1561 1562 1562 1564 1564 1565 1566 1566 1567 1567 1568 1568 1568 1568 1569 1569 1570 1570 1570 1571 1571 1571 1571 1571 1571 1571 1571
1540 1542 1543 1545 1546 1548 1549 1550 1551 1552 1554 1555 1556 1557 1558 1559 1560 1561 1562 1563 1564 1565 1565 1566 1566 1567 1567 1568 1568 1568 1568 1569 1569 1570 1570 1570 1571 1571 1571 1571 1571 1571 1571
1538 1539 1541 1543 1544 1546 1547 1548 1550 1551 1552 1554 1555 1556 1557 1558 1559 1560 1561 1562 1563 1564 1565 1565 1566 1566 1566 1567 1567 1568 1568 1568 1569 1569 1569 1570 1570 1570 1570 1570 1570 1570 1570
1536 1537 1539 1540 1542 1544 1545 1546 1547 1549 1550 1552 1553 1555 1556 1557 1558 1559 1561 1561 1562 1563 1564 1565 1565 1566 1566 1566 1566 1567 1567 1568 1568 1568 1569 1569 1569 1569 1569 1569 1569 1569 1569
1533 1534 1536 1537 1539 1541 1543 1544 1545 1547 1548 1550 1551 1553 1554 1556 1557 1558 1559 1560 1561 1562 1563 1563 1564 1565 1565 1565 1566 1566 1567 1567 1567 1568 1568 1568 1568 1568 1568 1568 1568 1568 1568
1530 1531 1532 1534 1536 1538 1540 1541 1543 1545 1546 1547 1549 1551 1553 1554 1555 1556 1557 1559 1560 1561 1561 1562 1563 1563 1564 1564 1565 1565 1566 1566 1566 1566 1567 1567 1567 1567 1567 1567 1567 1567 1567
1526 1527 1529 1531 1533 1535 1536 1538 1540 1542 1543 1545 1547 1548 1550 1552 1553 1554 1555 1557 1558 1559 1560 1560 1561 1561 1562 1562 1563 1564 1564 1564 1565 1565 1565 1565 1566 1566 1566 1566 1566 1565 1565
1523 1524 1525 1527 1529 1531 1533 1535 1536 1538 1540 1542 1544 1545 1548 1551 1550 1551 1553 1554 1555 1556 1557 1558 1559 1559 1560 1561 1561 1562 1562 1562 1563 1563 1563 1563 1564 1564 1564 1564 1564 1564 1564
1519 1521 1522 1524 1526 1528 1529 1531 1533 1534 1536 1538 1541 1543 1544 1545 1547 1548 1549 1551 1552 1553 1554 1555 1556 1557 1558 1558 1559 1559 1560 1560 1561 1561 1561 1561 1562 1562 1562 1562 1562 1562 1561
1515 1517 1518 1520 1522 1523 1525 1527 1529 1531 1533 1534 1537 1539 1541 1541 1543 1544 1546 1547 1548 1549 1551 1552 1553 1554 1555 1555 1556 1557 1557 1558 1558 1558 1559 1559 1559 1559 1559 1559 1559 1559 1559
1511 1512 1515 1517 1518 1520 1521 1523 1525 1527 1529 1531 1532 1534 1536 1537 1539 1540 1540 1542 1544 1546 1547 1548 1549 1550 1551 1552 1553 1553 1554 1554 1555 1555 1555 1556 1556 1556 1556 1556 1556 1556 1556
1506 1508 1511 1512 1514 1515 1517 1519 1520 1523 1525 1527 1529 1530 1531 1533 1534 1536 1536 1537 1539 1541 1543 1544 1545 1546 1547 1548 1549 1550 1550 1550 1551 1551 1552 1552 1552 1553 1553 1553 1553 1553 1553
1501 1503 1506 1507 1509 1511 1512 1514 1516 1518 1520 1522 1524 1526 1528 1529 1531 1532 1533 1534 1535 1536 1538 1540 1541 1542 1543 1544 1545 1545 1546 1546 1547 1547 1548 1548 1548 1549 1549 1549 1549 1549 1549
1497 1498 1500 1502 1504 1506 1507 1509 1511 1513 1515 1517 1519 1521 1523 1524 1526 1527 1529 1530 1531 1532 1533 1534 1536 1537 1538 1539 1540 1541 1542 1542 1543 1543 1544 1544 1544 1545 1545 1545 1545 1545 1545
1492 1494 1495 1497 1499 1501 1503 1504 1505 1508 1510 1512 1514 1516 1518 1519 1521 1522 1524 1526 1527 1527 1527 1529 1531 1532 1534 1535 1536 1536 1537 1538 1538 1539 1539 1540 1540 1541 1541 1541 1541 1541 1541
1487 1489 1490 1491 1494 1495 1497 1498 1500 1502 1505 1506 1508 1510 1512 1514 1516 1517 1519 1520 1522 1523 1523 1523 1525 1527 1529 1530 1531 1532 1532 1533 1534 1534 1535 1535 1535 1536 1536 1537 1537 1536 1536
1482 1483 1484 1486 1487 1489 1492 1492 1494 1496 1499 1501 1502 1504 1506 1508 1510 1512 1513 1515 1516 1518 1518 1518 1521 1522 1524 1525 1526 1527 1527 1528 1528 1529 1530 1530 1531 1531 1531 1531 1532 1532 1532
1477 1478 1479 1480 1481 1483 1485 1487 1488 1490 1492 1494 1496 1498 1500 1502 1504 1506 1507 1509 1510 1512 1513 1512 1514 1516 1518 1519 1520 1521 1522 1522 1523 1524 1524 1525 1525 1525 1526 1526 1526 1526 1526
1471 1472 1473 1474 1475 1477 1479 1481 1483 1484 1486 1488 1490 1492 1494 1496 1497 1499 1501 1502 1504 1506 1507 1508 1508 1510 1512 1514 1514 1515 1516 1516 1517 1518 1518 1519 1519 1520 1520 1520 1520 1520 1521
1465 1466 1467 1468 1469 1471 1473 1475 1476 1478 1480 1482 1484 1486 1487 1489 1491 1493 1494 1496 1498 1499 1501 1502 1503 1504 1506 1508 1508 1509 1509 1511 1511 1512 1513 1513 1514 1514 1514 1515 1514 1514 1515
1459 1460 1461 1462 1464 1465 1466 1468 1470 1472 1474 1475 1477 1479 1481 1483 1485 1487 1489 1490 1492 1493 1495 1496 1497 1498 1500 1501 1502 1503 1504 1505 1505 1506 1506 1507 1508 1508 1508 1508 1509 1509 1509
1454 1455 1456 1457 1458 1459 1461 1463 1464 1466 1467 1469 1471 1473 1475 1477 1479 1481 1483 1484 1486 1487 1488 1490 1491 1492 1493 1495 1497 1498 1498 1498 1498 1500 1501 1501 1502 1502 1502 1502 1502 1503 1503
1448 1449 1450 1451 1452 1454 1456 1457 1459 1461 1462 1463 1465 1466 1468 1470 1473 1475 1476 1478 1479 1481 1483 1484 1485 1486 1488 1489 1491 1491 1492 1492 1493 1494 1495 1494 1495 1495 1496 1496 1497 1497 1497
1442 1443 1444 1445 1446 1448 1450 1452 1453 1455 1456 1458 1459 1460 1462 1464 1467 1468 1470 1471 1473 1475 1476 1478 1479 1480 1482 1483 1484 1486 1486 1487 1487 1488 1489 1488 1488 1489 1489 1490 1490 1491 1490
1436 1437 1438 1439 1441 1442 1444 1446 1448 1449 1450 1451 1453 1455 1456 1458 1460 1462 1464 1465 1466 1468 1470 1472 1473 1474 1476 1477 1478 1480 1480 1481 1480 1481 1483 1483 1482 1482 1482 1483 1484 1484 1484
1431 1432 1433 1434 1435 1436 1439 1441 1442 1443 1444 1445 1447 1449 1450 1452 1454 1455 1457 1458 1460 1461 1464 1465 1467 1468 1469 1471 1472 1473 1474 1475 1474 1475 1476 1477 1477 1478 1476 1476 1477 1478 1477